Date,TemperatureHighF,TemperatureAvgF,TemperatureLowF,DewpointHighF,DewpointAvgF,DewpointLowF,HumidityHigh,HumidityAvg,HumidityLow,PressureMaxIn,PressureMinIn,WindSpeedMaxMPH,WindSpeedAvgMPH,GustSpeedMaxMPH,PrecipitationSumIn
2013-3-1,61.0,56.0,51.3,45.6,43.1,38.6,75,63,44,30.57,30.36,0,0,0,0.00
2013-3-2,56.3,51.1,42.4,47.4,39.9,28.5,84,67,49,30.39,30.24,0,0,0,0.00
2013-3-3,50.0,40.9,33.8,37.0,27.2,19.2,80,60,30,30.51,30.21,0,0,0,0.00
2013-3-4,54.5,37.4,32.2,29.3,25.6,17.0,80,65,23,30.27,30.12,0,0,0,0.00
2013-3-16,51.1,46.9,40.6,41.7,37.9,33.0,76,71,59,30.21,30.04,0,0,0,0.21
2013-3-17,50.9,44.4,38.5,33.0,26.0,18.8,74,50,30,30.39,30.06,0,0,0,0.00
2013-3-18,55.0,45.7,37.2,30.9,25.5,20.8,67,47,27,30.45,30.06,0,0,0,0.00
2013-3-19,52.2,44.9,38.5,41.9,32.5,24.9,83,63,36,30.12,29.68,0,0,0,0.45
2013-3-20,55.8,49.6,42.1,49.3,35.2,22.3,87,60,36,30.12,29.62,0,0,0,0.25
2013-3-21,50.2,43.5,39.6,32.6,25.0,18.2,65,49,30,30.42,30.12,0,0,0,0.00
2013-3-22,49.5,40.2,34.7,32.0,25.8,16.0,77,58,28,30.51,30.18,0,0,0,0.04
2013-3-23,50.0,40.5,34.0,36.6,25.4,14.3,84,59,24,30.60,30.18,0,0,0,0.00
2013-3-24,56.3,45.6,35.1,29.2,23.1,17.7,70,44,25,30.42,30.06,0,0,0,0.04
2013-3-25,61.9,51.4,39.7,25.6,20.7,14.3,55,32,16,30.21,29.98,0,0,0,0.00
2013-3-26,53.8,47.6,40.1,40.5,35.0,24.2,74,62,41,30.15,29.92,0,0,0,0.00
2013-3-27,64.9,52.6,41.2,47.4,36.6,27.4,85,60,25,30.30,29.89,0,0,0,0.09
2013-3-28,66.0,54.9,45.5,49.8,39.1,27.0,86,61,24,30.42,30.01,0,0,0,0.00
2013-3-29,68.2,57.8,49.5,47.7,38.4,29.3,83,52,24,30.57,30.21,0,0,0,0.00
2013-3-30,76.5,60.8,47.1,41.5,35.0,29.1,75,43,18,30.63,30.12,0,0,0,0.00
2013-3-31,74.8,62.1,47.7,41.8,34.8,31.0,61,38,21,30.48,30.01,0,0,0,0.00